Flag Weather past 2 weeks in Canberra, Australian Capital Territory, Australia

Now
48 °F

Clear.


Feels Like: 45 °F
Forecast: 53 / 79 °F
Wind: 7 mph from East

Location: Canberra Airport

Current Time: Nov 28, 2014 at 3:42:17 AM

Latest Report: Nov 28, 2014 at 3:00 AM


Visibility: N/A

Pressure: 30.21 "Hg

Humidity: 87%

Dew point: 45 °F

Location of CanberraLocation

Historic Weather in Canberra — Graph

°F

Canberra temperature yesterday

Maximum temperature yesterday: 77 °F (at 3:00 PM)
Minimum temperature yesterday: 55 °F (at 10:30 PM)
Average temperature yesterday: 63 °F

Past Weeks' High & Low Weather Summary

 TemperatureHumidityPressure
High102 °F (Nov 23, 3:00 PM)100% (Nov 16, 1:00 AM)30.27 "Hg (Nov 16, 1:00 AM)
Low43 °F (Nov 18, 5:00 AM)11% (Nov 14, 3:00 PM)29.62 "Hg (Nov 16, 8:30 AM)
Average67 °F57%29.95 "Hg
* Reported Nov 13 2:00 AM — Nov 28 2:30 AM, Canberra, Weather by CustomWeather, © 2014

Note: Actual official high and low records may vary slightly from our data, if they occured in-between our weather recording intervals... More about our weather records

Advertising

Canberra weather history for previous 24 hours

 ConditionsComfort  
Time TempWeatherWind HumidityBarometerVisibility
2:30 AM
Nov 28
48 °FClear.5 mph87%30.21 "HgN/A
2:00 AM50 °FPassing clouds.6 mph88%30.21 "HgN/A
1:30 AM52 °FPassing clouds.7 mph82%30.24 "HgN/A
1:00 AM54 °FPassing clouds.7 mph77%30.24 "HgN/A
12:30 AM55 °FPassing clouds.7 mph77%30.24 "HgN/A
12:00 AM55 °FMostly cloudy.9 mph77%30.24 "HgN/A
11:30 PM
Nov 27
55 °FMostly cloudy.13 mph77%30.24 "HgN/A
11:00 PM55 °FOvercast.10 mph77%30.27 "HgN/A
10:30 PM55 °FOvercast.9 mph82%30.27 "HgN/A
10:00 PM57 °FOvercast.12 mph77%30.24 "HgN/A
9:30 PM57 °FOvercast.14 mph77%30.24 "HgN/A
9:00 PM57 °FOvercast.10 mph77%30.24 "HgN/A
8:00 PM57 °FPartly cloudy.13 mph77%30.21 "HgN/A
7:00 PM61 °FPassing clouds.17 mph68%30.18 "HgN/A
6:30 PM66 °FSunny.20 mph60%30.15 "Hg10 mi
6:00 PM64 °FSunny.20 mph64%30.12 "Hg10 mi
5:00 PM73 °FSunny.13 mph41%30.09 "Hg10 mi
4:30 PM75 °FSunny.9 mph34%30.09 "Hg10 mi
4:00 PM77 °FSunny.7 mph30%30.09 "Hg10 mi
3:30 PM73 °FSunny.10 mph38%30.12 "Hg10 mi
3:00 PM77 °FSunny.7 mph34%30.12 "Hg10 mi
2:30 PM73 °FSunny.13 mph38%30.12 "Hg10 mi
2:00 PM73 °FScattered clouds.9 mph36%30.12 "HgN/A
1:30 PM72 °FScattered clouds.9 mph41%30.15 "HgN/A
1:00 PM73 °FScattered clouds.8 mph41%30.15 "HgN/A
12:30 PM70 °FScattered clouds.7 mph43%30.15 "HgN/A
12:00 PM70 °FScattered clouds.6 mph46%30.18 "HgN/A
11:30 AM68 °FScattered clouds.7 mph53%30.18 "HgN/A
11:00 AM66 °FPartly sunny.8 mph56%30.18 "HgN/A
10:00 AM64 °FPartly sunny.8 mph64%30.21 "HgN/A
9:30 AM63 °FPartly sunny.9 mph59%30.21 "HgN/A
9:00 AM63 °FBroken clouds.8 mph68%30.21 "HgN/A
8:30 AM61 °FPartly sunny.6 mph68%30.21 "HgN/A
8:00 AM59 °FOvercast.6 mph77%30.21 "HgN/A
7:30 AM59 °FMostly cloudy.12 mph77%30.18 "HgN/A
7:00 AM59 °FPartly sunny.8 mph77%30.18 "HgN/A
6:30 AM57 °FPartly sunny.7 mph82%30.18 "HgN/A
6:00 AM57 °FOvercast.7 mph82%30.15 "HgN/A
5:30 AM57 °FMostly cloudy.6 mph82%30.15 "HgN/A
5:00 AM57 °FOvercast.5 mph82%30.15 "HgN/A
4:30 AM57 °FMostly cloudy.8 mph82%30.12 "HgN/A
4:00 AM59 °FOvercast.7 mph77%30.12 "HgN/A
3:30 AM57 °FOvercast.7 mph82%30.12 "HgN/A
3:00 AM59 °FMostly cloudy.9 mph77%30.12 "HgN/A
Weather by CustomWeather, © 2014

See weather overviewHow to use our weather pages